Chamberlain, SD

7:32 AM CST on February 24, 2017 (GMT -0600)
Chamberlain

Weather History for K9V9 - February, 2013

Change the Weather History Date:

Sunday, February 10, 2013

  Actual Average Record
Temperature  
Mean Temperature 30 °F -  
Max Temperature 33 °F 33 °F 57 °F (1999)
Min Temperature 25 °F 13 °F -11 °F (2014)
Degree Days  
Heating Degree Days 36    
Moisture  
Dew Point 26 °F    
Average Humidity 88    
Maximum Humidity 96    
Minimum Humidity 78    
Precipitation  
Precipitation 0.83 in - - ()
Sea Level Pressure  
Sea Level Pressure 29.60 in    
Wind  
Wind Speed 17 mph (North)    
Max Wind Speed 30 mph    
Max Gust Speed 45 mph    
Averages and records for this station are not official NWS values.
T = Trace of Precipitation, MM = Missing Value Source: NWS Daily Summary

Daily Weather History Graph

Daily Weather History Graph

Search for Another Location

Airport or City:

Trip Planner

Search our weather history database for the weather conditions in past years. The results will help you decide how hot, cold, wet, or windy it might be!

Date:

Astronomy

Feb. 10, 2013 Rise Set
Actual Time 7:42 AM CST 6:00 PM CST
Civil Twilight 7:12 AM CST 6:30 PM CST
Nautical Twilight 6:39 AM CST 7:04 PM CST
Astronomical Twilight 6:05 AM CST 7:38 PM CST
Moon 7:30 AM CST (2/10) 6:57 PM CST (2/10)
Length of Visible Light 11h 17m
Length of Day
10h 18m
New Moon, 0% of the Moon is Illuminated
Feb 10
New Moon
Feb 17
First Quarter
Feb 25
Full
Mar 4
Last Quarter
Mar 11
New

Hourly Weather History & Observations

Time (CST) Temp. Windchill Dew Point Humidity Pressure Visibility Wind Dir Wind Speed Gust Speed Precip Events Conditions
12:52 AM 33.1 °F 23.4 °F 30.9 °F 92% 29.60 in - NNE 13.8 mph - 0.02 in   Unknown
1:52 AM 33.1 °F 23.9 °F 30.9 °F 92% 29.55 in - NNE 12.7 mph - 0.04 in   Unknown
2:52 AM 33.1 °F 24.9 °F 30.9 °F 92% 29.53 in - NNE 10.4 mph - 0.09 in   Unknown
3:52 AM 33.1 °F 24.4 °F 30.9 °F 92% 29.51 in - NNE 11.5 mph - 0.11 in   Unknown
4:52 AM 33.1 °F 23.9 °F 30.9 °F 92% 29.47 in - NNE 12.7 mph - 0.19 in   Unknown
5:52 AM 32.0 °F 23.6 °F 30.9 °F 96% 29.46 in - North 10.4 mph - 0.06 in   Unknown
6:52 AM 32.0 °F 21.6 °F 30.0 °F 92% 29.44 in - North 15.0 mph 21.9 mph 0.07 in   Unknown
7:52 AM 30.9 °F 20.2 °F 28.9 °F 92% 29.45 in - North 15.0 mph 25.3 mph 0.04 in   Unknown
8:52 AM 30.0 °F 17.9 °F 28.0 °F 92% 29.46 in - North 18.4 mph 25.3 mph 0.04 in   Unknown
9:52 AM 28.9 °F 15.8 °F 27.0 °F 92% 29.47 in - North 20.7 mph 28.8 mph 0.05 in   Unknown
10:52 AM 28.9 °F 15.8 °F 25.0 °F 85% 29.49 in - North 20.7 mph 35.7 mph 0.01 in   Unknown
11:52 AM 28.9 °F 15.1 °F 25.0 °F 85% 29.50 in - North 23.0 mph 31.1 mph 0.02 in   Unknown
12:52 PM 28.0 °F 13.3 °F 24.1 °F 85% 29.52 in - NNW 25.3 mph 36.8 mph N/A   Unknown
1:52 PM 26.1 °F 11.3 °F 21.9 °F 84% 29.55 in - NNW 23.0 mph 35.7 mph 0.01 in   Unknown
2:52 PM 26.1 °F 9.6 °F 21.9 °F 84% 29.57 in - NNW 29.9 mph 38.0 mph N/A   Unknown
3:52 PM 27.0 °F 12.5 °F 23.0 °F 85% 29.61 in - NNW 23.0 mph 35.7 mph N/A   Unknown
4:52 PM 27.0 °F 11.3 °F 23.0 °F 85% 29.64 in - NNW 27.6 mph 44.9 mph N/A   Unknown
5:52 PM 27.0 °F 11.9 °F 23.0 °F 85% 29.69 in - NNW 25.3 mph 35.7 mph 0.01 in   Unknown
6:52 PM 28.0 °F 12.8 °F 24.1 °F 85% 29.73 in - NNW 27.6 mph 35.7 mph N/A   Unknown
7:52 PM 28.0 °F 15.3 °F 25.0 °F 88% 29.77 in - NNW 18.4 mph 32.2 mph 0.04 in   Unknown
8:52 PM 27.0 °F 11.6 °F 24.1 °F 89% 29.81 in - NNW 26.5 mph 36.8 mph 0.02 in   Unknown
9:52 PM 26.1 °F 11.3 °F 21.9 °F 84% 29.86 in - NNW 23.0 mph 38.0 mph 0.01 in   Unknown
10:52 PM 26.1 °F 11.6 °F 21.0 °F 81% 29.89 in - NNW 21.9 mph 39.1 mph N/A   Unknown
11:52 PM 25.0 °F 9.2 °F 19.0 °F 78% 29.93 in - NW 25.3 mph 34.5 mph N/A   Unknown